Regional Weather Roundup
Issued by NWS

Home | Current Version | Previous Version | Graphics & Text | Print | Product List | Glossary Off
Versions: 1 2 3 4 5 6 7 8 9 10 11 12 13 14 15 16 17 18 19 20 21 22 23 24 25 26 27 28 29 30 31 32 33 34 35 36 37 38 39 40 41 42 43 44 45 46 47 48 49 50

000
ASUS43 KDMX 240907
RWRIA

WEATHER ROUNDUP FOR IOWA
NATIONAL WEATHER SERVICE DES MOINES IA
400 AM CDT FRI APR 24 2015

NOTE: "FAIR" INDICATES FEW OR NO CLOUDS BELOW 12,000 FEET WITH NO
SIGNIFICANT WEATHER AND/OR OBSTRUCTIONS TO VISIBILITY.

* - THESE STATIONS ARE NOT NWS STATIONS...THUS NOT UNDER NWS
QUALITY CONTROL.  THEY ALSO DO NOT REPORT WEATHER SUCH
AS PRECIPITATION OR FOG.

IAZ001>003-012>014-020>022-031>034-043>046-241000-
   NORTHWEST IOWA

CITY           SKY/WX    TMP DP  RH WIND       PRES   REMARKS
CARROLL *      CLOUDY    48  39  71 SE15      29.88F
CHEROKEE *     CLOUDY    52  37  58 SE20      29.84F
DENISON *      CLOUDY    54  34  47 SE12G21   29.84S
LE MARS *      CLOUDY    54  37  54 SE15      29.80F
ORANGE CITY *  CLOUDY    50  37  62 SE13G21   29.80F
SHELDON *      CLOUDY    52  36  54 SE20G26   29.81F
SIOUX CITY     CLOUDY    55  37  50 SE14      29.80F
SPENCER        CLOUDY    50  37  61 SE17      29.86F
STORM LAKE *   CLOUDY    48  39  71 SE20      29.86F
$$

IAZ055>058-069>071-079>083-090>094-241000-
   SOUTHWEST IOWA

CITY           SKY/WX    TMP DP  RH WIND       PRES   REMARKS
ATLANTIC *     CLOUDY    54  34  47 SE10      29.87F
AUDUBON *      MOCLDY    54  34  47 SE10      29.89F
CLARINDA *     CLOUDY    55  36  47 SE8G15    29.89F
COUNCIL BLFS * CLOUDY    54  37  54 S13       29.84F
CRESTON *      CLOUDY    52  36  54 SE12      29.92F
HARLAN  *      CLOUDY    54  36  50 SE12      29.89F
LAMONI         CLOUDY    54  34  46 SE8       29.93F
RED OAK *      CLOUDY    55  36  47 SE13G18   29.86F
SHENANDOAH *   CLOUDY    55  37  50 SE9G16    29.87F
$$

IAZ047>049-059>061-072>074-084-241000-
   CENTRAL IOWA

CITY           SKY/WX    TMP DP  RH WIND       PRES   REMARKS
AMES           LGT RAIN  45  35  68 E10       29.97R
ANKENY *       CLOUDY    52  30  43 SE6       29.96S
CHARITON *     CLOUDY    52  34  50 SE9       29.96S
DES MOINES     LGT RAIN  53  28  38 SE12      29.96S
GRINNELL*      CLOUDY    46  25  42 E7        30.00R
KNOXVILLE *    CLOUDY    52  27  37 SE9       29.96S
MARSHALLTOWN   CLOUDY    47  23  38 SE12      29.98S
PELLA *        MOCLDY    50  32  50 SE10      29.99F
PERRY *        LGT RAIN  48  37  66 E10       29.94F
$$

IAZ004>006-015-016-023>025-035-036-241000-
   NORTH CENTRAL IOWA

CITY           SKY/WX    TMP DP  RH WIND       PRES   REMARKS
ALGONA *       CLOUDY    48  27  43 S16G23    29.93S
CLARION *      CLOUDY    48  23  37 SE14G21   29.95S
ESTHERVILLE    CLOUDY    48  26  42 S20       29.88F
FORT DODGE *   CLOUDY    45  32  61 SE10      29.95F
MASON CITY     PTCLDY    41  19  41 SE8       29.98S
FOREST CITY *  CLOUDY    43  19  39 SE12      29.94F
IOWA FALLS *   CLOUDY    45  25  45 SE9       29.99R
$$

IAZ007>011-017>019-026>030-037>042-050>054-066-241000-
   NORTHEAST IOWA

CITY           SKY/WX    TMP DP  RH WIND       PRES   REMARKS
CEDAR RAPIDS   CLOUDY    43  24  47 SE5       30.01F
CHARLES CITY * CLEAR     39  18  41 SE9       29.99S WCI  33
CLINTON *      PTCLDY    28  21  74 E5        30.08S WCI  23
DECORAH *      CLOUDY    39  16  38 SE5       29.99F
DUBUQUE        PTCLDY    39  17  41 E7        30.03F WCI  34
MONTICELLO *   MOCLDY    32  27  80 CALM      30.03S
OELWEIN *      PTCLDY    39  21  48 SE10      30.01S WCI  32
WATERLOO       PTCLDY    41  19  41 SE5       30.00S
$$

IAZ064-065-067-068-078-241000-
   EAST CENTRAL IOWA

CITY           SKY/WX    TMP DP  RH WIND       PRES   REMARKS
DAVENPORT      MOCLDY    38  25  59 SE6       30.05S WCI  33
IOWA CITY      CLOUDY    43  28  55 SE5       30.04S
MT. PLEASANT * CLOUDY    46  25  42 SE6       30.03S
MUSCATINE *    CLOUDY    39  30  70 CALM      30.05S
QUAD CITIES    CLOUDY    34  26  72 E5        30.05F WCI  30
$$

IAZ062-063-075>077-085>089-095>099-241000-
   SOUTHEAST IOWA

CITY           SKY/WX    TMP DP  RH WIND       PRES   REMARKS
BURLINGTON     CLOUDY    48  21  34 SE8       30.02F
FAIRFIELD *    CLOUDY    48  27  43 SE10      30.01F
FORT MADISON * CLOUDY    48  21  34 SE9       30.03F
KEOKUK *       CLOUDY    50  27  40 SE7       30.02F
OSKALOOSA *    CLOUDY    48  27  43 SE9       30.00S
CENTERVILLE *  MOCLDY    50  34  53 E8        29.99F
OTTUMWA        CLOUDY    48  27  44 SE8       29.99F
WASHINGTON *   CLOUDY    46  25  42 SE7       30.02S
$$

ABBREVIATIONS USED IN REMARKS
   TC - TEMPERATURES IN CELSIUS
  WCI - WIND CHILL INDEX
   HX - HEAT INDEX
  VSB - VISIBILITY
$$




USA.gov is the U.S. government's official web portal to all federal, state and local government web resources and services.